Weather History for Clearfield, PA

Change the Weather History Date:

Thursday, November 24, 2011

  Actual Average (KDUJ) Record (KDUJ)
Temperature  
Mean Temperature 36 °F 36 °F  
Max Temperature 43 °F 43 °F 61 °F (1979)
Min Temperature 30 °F 29 °F 9 °F (2005)
Degree Days  
Heating Degree Days 28 29  
Month to date heating degree days 592  
Since 1 July heating degree days 1335  
Cooling Degree Days 0 0  
Month to date cooling degree days 0  
Year to date cooling degree days 362  
Moisture  
Dew Point 33 °F    
Average Humidity 86    
Maximum Humidity 96    
Minimum Humidity 68    
Precipitation  
Precipitation 0.00 in 0.13 in 0.73 in (2008)
Month to date precipitation 2.95  
Sea Level Pressure  
Sea Level Pressure 30.25 in    
Wind  
Wind Speed 7 mph (SW)    
Max Wind Speed 13 mph    
Max Gust Speed -    
Visibility 9 miles    
Events      
T = Trace of Precipitation, MM = Missing Value Source: NWS Daily Summary

Daily Weather History Graph

Daily Weather History Graph

Search for Another Location

Airport:

Trip Planner

Search our weather history database for the weather conditions in past years. The results will help you decide how hot, cold, wet, or windy it might be!

Date:

Astronomy

Nov. 24, 2011 Rise Set
Actual Time 7:11 AM EST 4:48 PM EST
Civil Twilight 6:41 AM EST 5:19 PM EST
Nautical Twilight 6:07 AM EST 5:52 PM EST
Astronomical Twilight 5:34 AM EST 6:25 PM EST
Moon 6:27 AM EST (11/24) 4:17 PM EST (11/24)
Length of Visible Light 10h 37m
Length of Day
9h 37m
Waning Crescent, 0% of the Moon is Illuminated
Nov 24
Waning Crescent
Nov 25
New
Dec 2
First Quarter
Dec 10
Full
Dec 17
Last Quarter

Hourly Weather History & Observations

Time (EST) Temp. Windchill Dew Point Humidity Pressure Visibility Wind Dir Wind Speed Gust Speed Precip Events Conditions
12:54 AM 36.0 °F 27.5 °F 32.0 °F 86% 30.18 in 10.0 mi WNW 12.7 mph - N/A   Partly Cloudy
1:54 AM 34.0 °F - 30.9 °F 89% 30.19 in 10.0 mi Calm Calm - N/A   Clear
2:54 AM 32.0 °F - 30.0 °F 92% 30.20 in 10.0 mi Calm Calm - N/A   Clear
3:54 AM 32.0 °F 28.7 °F 30.0 °F 92% 30.21 in 10.0 mi WSW 3.5 mph - N/A   Clear
5:54 AM 30.9 °F 27.5 °F 30.0 °F 96% 30.23 in 4.0 mi SW 3.5 mph - N/A   Clear
6:54 AM 30.9 °F 26.2 °F 28.9 °F 92% 30.25 in 5.0 mi SW 4.6 mph - N/A   Clear
7:34 AM 32.0 °F 27.5 °F 30.2 °F 93% 30.22 in 4.0 mi WSW 4.6 mph - N/A   Mostly Cloudy
7:54 AM 33.1 °F 26.9 °F 30.9 °F 92% 30.27 in 7.0 mi West 6.9 mph - N/A   Mostly Cloudy
8:51 AM 33.8 °F 27.0 °F 30.2 °F 87% 30.24 in 9.0 mi WSW 8.1 mph - N/A   Mostly Cloudy
8:54 AM 34.0 °F 28.0 °F 30.9 °F 89% 30.29 in 9.0 mi WSW 6.9 mph - N/A   Mostly Cloudy
9:54 AM 36.0 °F 29.0 °F 32.0 °F 86% 30.30 in 10.0 mi West 9.2 mph - N/A   Overcast
10:47 AM 35.6 °F 29.2 °F 33.8 °F 93% 30.27 in 10.0 mi SW 8.1 mph - N/A   Overcast
10:54 AM 37.0 °F 31.0 °F 33.1 °F 86% 30.32 in 10.0 mi WSW 8.1 mph - N/A   Overcast
11:54 AM 37.0 °F 31.0 °F 33.1 °F 86% 30.31 in 10.0 mi WSW 8.1 mph - N/A   Overcast
12:32 PM 37.4 °F 30.3 °F 33.8 °F 87% 30.26 in 10.0 mi SW 10.4 mph - N/A   Overcast
12:54 PM 37.9 °F 31.5 °F 34.0 °F 86% 30.30 in 10.0 mi SW 9.2 mph - N/A   Overcast
1:54 PM 42.1 °F 37.1 °F 34.0 °F 73% 30.28 in 10.0 mi WSW 8.1 mph - N/A   Mostly Cloudy
2:11 PM 42.8 °F 37.5 °F 33.8 °F 70% 30.24 in 10.0 mi West 9.2 mph - N/A   Scattered Clouds
4:54 PM 43.0 °F 40.3 °F 33.1 °F 68% 30.25 in 10.0 mi SW 4.6 mph - N/A   Clear
5:54 PM 41.0 °F 35.8 °F 34.0 °F 76% 30.25 in 10.0 mi SW 8.1 mph - N/A   Clear
6:54 PM 39.9 °F 35.1 °F 34.0 °F 79% 30.25 in 10.0 mi SSW 6.9 mph - N/A   Clear
7:54 PM 39.0 °F 33.4 °F 35.1 °F 86% 30.26 in 10.0 mi SSW 8.1 mph - N/A   Clear
8:54 PM 37.9 °F 32.1 °F 36.0 °F 93% 30.26 in 8.0 mi SSW 8.1 mph - N/A   Clear
9:54 PM 37.9 °F 30.9 °F 35.1 °F 89% 30.26 in 9.0 mi SW 10.4 mph - N/A   Clear
10:54 PM 37.0 °F 30.4 °F 34.0 °F 89% 30.26 in 9.0 mi SSW 9.2 mph - N/A   Clear
11:12 PM 37.4 °F 31.4 °F 33.8 °F 87% 30.22 in 10.0 mi SSW 8.1 mph - N/A   Partly Cloudy
11:51 PM 35.6 °F 29.2 °F 33.8 °F 93% 30.23 in 10.0 mi SSW 8.1 mph - N/A   Mostly Cloudy